STARLINK-31997 (60288 NORAD) Tracking and Keplerian Element Data

This shows tracking and keplerian element data for the satellite.

Feedback or suggestion? Click here.




ElementValue
Catalog60288
NameSTARLINK-31997
Epoch Orbit1302
Epoch Day286.69840873
Epoch Year2024
RAAN274.9018
Inclination53.1602
Eccentricity0.0001481
Argument of Perigee99.6166
Mean Anonmoly260.5002
Mean Motion15.30198833
Decay Rate1.431E-05
L11 60288U 24132L 24286.69840873 .00001431 00000+0 60454-4 0 9994
L22 60288 53.1602 274.9018 0001481 99.6166 260.5002 15.30198833 13027



Live tracking and technical data element details for STARLINK-31997 (NORAD 60288). STARLINK-31997 can be tracked NOW for your location showing map with azimuth and elevation plus other details from your city location.







IsCatalogInMostPopularTable: catalog: 60288, numindb: 13
Update: records affected: 1



GetName: 60288 STARLINK-31997

Hit Count: updated at: Thu, 23 Jan 2025 14:50:03 GMT